�������l�o���
Date,Time,MP-1(��Sv/h),MP-2(��Sv/h),MP-3(��Sv/h),MP-4(��Sv/h),MP-5(��Sv/h),MP-6(��Sv/h),MP-7(��Sv/h),MP-8(��Sv/h),����,����(m/s),���J
2022/12/07,00:00,0.550,0.794,0.506,1.024,0.703,0.329,0.579,0.548,�k��,3.0,��
2022/12/07,00:10,0.553,0.794,0.507,1.023,0.701,0.329,0.578,0.548,���k��,5.0,��
2022/12/07,00:20,0.551,0.796,0.507,1.023,0.702,0.328,0.577,0.548,��,4.5,��
2022/12/07,00:30,0.551,0.796,0.506,1.025,0.701,0.329,0.578,0.547,���k��,4.8,��
2022/12/07,00:40,0.552,0.795,0.505,1.027,0.702,0.328,0.578,0.548,���k��,7.6,��
2022/12/07,00:50,0.552,0.796,0.507,1.025,0.702,0.329,0.578,0.549,���k��,6.7,��
2022/12/07,01:00,0.554,0.796,0.506,1.025,0.702,0.328,0.578,0.548,���k��,8.2,��
2022/12/07,01:10,0.553,0.796,0.504,1.026,0.704,0.329,0.579,0.549,���k��,8.3,��
2022/12/07,01:20,0.552,0.794,0.506,1.025,0.703,0.329,0.579,0.548,��,7.2,��
2022/12/07,01:30,0.554,0.795,0.506,1.025,0.702,0.331,0.580,0.549,��,7.7,��
2022/12/07,01:40,0.553,0.796,0.505,1.028,0.704,0.329,0.580,0.549,���k��,9.8,��
2022/12/07,01:50,0.555,0.796,0.507,1.029,0.704,0.328,0.581,0.550,���k��,5.8,��
2022/12/07,02:00,0.552,0.796,0.507,1.027,0.702,0.329,0.579,0.552,�k��,7.0,��
2022/12/07,02:10,0.553,0.796,0.505,1.027,0.702,0.330,0.580,0.550,���k��,7.1,��
2022/12/07,02:20,0.552,0.796,0.507,1.025,0.702,0.329,0.580,0.551,�k��,6.8,��
2022/12/07,02:30,0.554,0.797,0.506,1.027,0.703,0.328,0.581,0.551,�k��,6.6,��
2022/12/07,02:40,0.552,0.797,0.507,1.027,0.702,0.328,0.581,0.550,�k��,5.8,��
2022/12/07,02:50,0.553,0.796,0.507,1.029,0.703,0.329,0.582,0.549,�k��,5.3,��
2022/12/07,03:00,0.554,0.797,0.506,1.027,0.702,0.328,0.580,0.549,�k��,4.7,��
2022/12/07,03:10,0.551,0.797,0.507,1.027,0.703,0.328,0.580,0.550,�k��,5.0,��
2022/12/07,03:20,0.552,0.796,0.506,1.028,0.703,0.329,0.580,0.551,���k��,5.5,��
2022/12/07,03:30,0.555,0.797,0.509,1.029,0.702,0.328,0.580,0.550,���k��,5.4,��
2022/12/07,03:40,0.554,0.796,0.507,1.029,0.703,0.329,0.580,0.552,���k��,6.0,��
2022/12/07,03:50,0.553,0.797,0.507,1.027,0.704,0.328,0.580,0.550,���k��,5.6,��
2022/12/07,04:00,0.554,0.796,0.505,1.028,0.701,0.330,0.580,0.549,���k��,5.6,��
2022/12/07,04:10,0.552,0.796,0.507,1.027,0.703,0.329,0.581,0.549,���k��,5.8,��
2022/12/07,04:20,0.554,0.797,0.506,1.025,0.704,0.329,0.580,0.549,���k��,6.6,��
2022/12/07,04:30,0.553,0.796,0.507,1.028,0.702,0.328,0.579,0.550,��,4.5,��
2022/12/07,04:40,0.554,0.797,0.506,1.029,0.706,0.328,0.580,0.550,���k��,4.0,��
2022/12/07,04:50,0.553,0.797,0.505,1.029,0.702,0.330,0.578,0.551,���k��,6.4,��
2022/12/07,05:00,0.553,0.797,0.507,1.027,0.705,0.328,0.580,0.551,��,7.3,��
2022/12/07,05:10,0.554,0.797,0.506,1.028,0.704,0.329,0.578,0.551,��,6.0,��
2022/12/07,05:20,0.554,0.799,0.505,1.030,0.704,0.329,0.580,0.549,��,4.4,��
2022/12/07,05:30,0.553,0.797,0.507,1.029,0.704,0.329,0.578,0.550,���k��,3.8,��
2022/12/07,05:40,0.553,0.797,0.507,1.029,0.704,0.328,0.581,0.551,���k��,4.5,��
2022/12/07,05:50,0.554,0.796,0.507,1.028,0.702,0.330,0.580,0.548,���k��,4.5,��
2022/12/07,06:00,0.554,0.796,0.507,1.028,0.703,0.328,0.579,0.550,��,4.5,��
2022/12/07,06:10,0.553,0.798,0.507,1.027,0.704,0.329,0.579,0.550,��,5.3,��
2022/12/07,06:20,0.552,0.799,0.506,1.028,0.703,0.329,0.579,0.551,���쐼,4.5,��
2022/12/07,06:30,0.554,0.795,0.507,1.028,0.704,0.330,0.578,0.550,��,4.5,��
2022/12/07,06:40,0.553,0.796,0.504,1.028,0.703,0.329,0.580,0.548,��,4.9,��
2022/12/07,06:50,0.554,0.798,0.508,1.029,0.705,0.327,0.579,0.550,���쐼,3.5,��
2022/12/07,07:00,0.553,0.799,0.507,1.029,0.704,0.328,0.579,0.550,��,3.5,��
2022/12/07,07:10,0.553,0.797,0.507,1.029,0.706,0.328,0.580,0.550,��,4.1,��
2022/12/07,07:20,0.553,0.796,0.507,1.027,0.704,0.329,0.580,0.549,��,3.9,��
2022/12/07,07:30,0.554,0.797,0.507,1.026,0.704,0.328,0.581,0.550,��,4.5,��
2022/12/07,07:40,0.551,0.799,0.505,1.029,0.704,0.328,0.580,0.549,��,3.6,��
2022/12/07,07:50,0.552,0.798,0.505,1.027,0.703,0.327,0.578,0.550,��,3.5,��
2022/12/07,08:00,0.550,0.798,0.506,1.030,0.704,0.327,0.580,0.549,���쐼,3.1,��
2022/12/07,08:10,0.543,0.798,0.508,1.030,0.705,0.329,0.579,0.549,���쐼,2.3,��
2022/12/07,08:20,0.546,0.796,0.506,1.027,0.704,0.330,0.579,0.550,�쐼,2.6,��
2022/12/07,08:30,0.546,0.794,0.495,1.028,0.702,0.329,0.579,0.550,�쐼,2.3,��
2022/12/07,08:40,0.545,0.798,0.494,1.029,0.703,0.329,0.579,0.549,���쐼,4.4,��
2022/12/07,08:50,0.545,0.798,0.491,1.026,0.704,0.329,0.578,0.550,���쐼,6.6,��
2022/12/07,09:00,0.540,0.799,0.491,1.030,0.705,0.328,0.580,0.549,���쐼,7.2,��
2022/12/07,09:10,0.540,0.798,0.490,1.029,0.704,0.329,0.582,0.549,��,7.2,��
2022/12/07,09:20,0.541,0.798,0.491,1.028,0.703,0.329,0.580,0.549,���쐼,5.8,��
2022/12/07,09:30,0.548,0.788,0.500,1.030,0.706,0.327,0.579,0.549,�쐼,5.9,��
2022/12/07,09:40,0.548,0.788,0.497,1.030,0.706,0.326,0.578,0.548,���쐼,6.3,��
2022/12/07,09:50,0.549,0.784,0.500,1.031,0.705,0.322,0.579,0.550,��,6.3,��
2022/12/07,10:00,0.548,0.787,0.500,1.031,0.705,0.323,0.578,0.550,���쐼,6.4,��
2022/12/07,10:10,0.554,0.788,0.500,1.030,0.706,0.324,0.579,0.549,���쐼,7.5,��
2022/12/07,10:20,0.554,0.792,0.499,1.031,0.706,0.324,0.578,0.549,���쐼,7.4,��
2022/12/07,10:30,0.557,0.797,0.500,1.032,0.708,0.327,0.578,0.551,���쐼,5.5,��
2022/12/07,10:40,0.556,0.796,0.502,1.030,0.707,0.326,0.580,0.551,���쐼,5.8,��
2022/12/07,10:50,0.555,0.796,0.499,1.032,0.708,0.327,0.578,0.551,���쐼,6.0,��
2022/12/07,11:00,0.556,0.799,0.500,1.034,0.709,0.325,0.579,0.551,���쐼,5.7,��
2022/12/07,11:10,0.557,0.798,0.501,1.031,0.709,0.326,0.580,0.550,���쐼,7.4,��
2022/12/07,11:20,0.556,0.799,0.501,1.031,0.708,0.327,0.578,0.550,���쐼,5.2,��
2022/12/07,11:30,0.557,0.798,0.501,1.032,0.708,0.326,0.578,0.552,��,4.5,��
2022/12/07,11:40,0.557,0.799,0.502,1.032,0.708,0.326,0.579,0.551,���쐼,4.2,�L
2022/12/07,11:50,0.557,0.801,0.503,1.034,0.710,0.326,0.579,0.551,���쐼,4.8,��
2022/12/07,12:00,0.560,0.800,0.502,1.032,0.709,0.325,0.579,0.550,��,4.5,��
2022/12/07,12:10,0.560,0.800,0.503,1.032,0.710,0.326,0.581,0.551,���쐼,4.6,��
2022/12/07,12:20,0.560,0.798,0.502,1.031,0.708,0.326,0.581,0.553,���쐼,3.5,��
2022/12/07,12:30,0.561,0.800,0.503,1.032,0.710,0.326,0.580,0.552,���쐼,4.0,��
2022/12/07,12:40,0.561,0.801,0.503,1.030,0.711,0.325,0.580,0.551,���쐼,2.9,�L
2022/12/07,12:50,0.559,0.800,0.503,1.034,0.712,0.327,0.579,0.549,���쐼,4.1,�L
2022/12/07,13:00,0.558,0.802,0.504,1.034,0.711,0.327,0.582,0.549,���쐼,4.4,��
2022/12/07,13:10,0.560,0.801,0.503,1.034,0.712,0.327,0.580,0.549,���쐼,4.2,��
2022/12/07,13:20,0.559,0.802,0.503,1.031,0.709,0.327,0.581,0.550,���쐼,5.9,��
2022/12/07,13:30,0.559,0.802,0.504,1.033,0.710,0.326,0.580,0.551,���쐼,5.0,��
2022/12/07,13:40,0.560,0.803,0.502,1.032,0.710,0.326,0.581,0.552,���쐼,2.8,��
2022/12/07,13:50,0.561,0.804,0.502,1.032,0.710,0.326,0.580,0.551,���쐼,3.2,��
2022/12/07,14:00,0.560,0.804,0.502,1.033,0.711,0.327,0.581,0.552,�쐼,2.8,��
2022/12/07,14:10,0.561,0.802,0.503,1.034,0.712,0.327,0.580,0.552,���쐼,2.0,��
2022/12/07,14:20,0.561,0.803,0.502,1.034,0.711,0.326,0.581,0.552,��쐼,2.5,��
2022/12/07,14:30,0.560,0.803,0.503,1.034,0.711,0.327,0.580,0.552,���쐼,0.8,��
2022/12/07,14:40,0.560,0.802,0.504,1.034,0.707,0.327,0.581,0.551,-,CALM,�L
2022/12/07,14:50,0.559,0.803,0.503,1.034,0.711,0.326,0.578,0.553,��,2.2,��
2022/12/07,15:00,0.560,0.803,0.503,1.035,0.710,0.328,0.581,0.551,��,4.2,��
2022/12/07,15:10,0.561,0.803,0.504,1.033,0.710,0.327,0.581,0.553,��,4.9,��
2022/12/07,15:20,0.560,0.804,0.502,1.034,0.710,0.325,0.581,0.553,���k��,6.5,��
2022/12/07,15:30,0.560,0.801,0.503,1.033,0.711,0.326,0.582,0.552,���k��,5.3,��
2022/12/07,15:40,0.560,0.805,0.505,1.036,0.711,0.327,0.581,0.550,���k��,5.2,��
2022/12/07,15:50,0.558,0.805,0.505,1.032,0.711,0.328,0.580,0.551,���k��,4.6,��
2022/12/07,16:00,0.560,0.804,0.503,1.033,0.711,0.326,0.580,0.551,��,3.1,��
2022/12/07,16:10,0.559,0.806,0.503,1.033,0.711,0.324,0.580,0.551,��,3.8,��
2022/12/07,16:20,0.559,0.806,0.503,1.034,0.711,0.325,0.579,0.552,���쐼,4.6,��
2022/12/07,16:30,0.559,0.805,0.502,1.034,0.710,0.327,0.580,0.552,��,4.2,��
2022/12/07,16:40,0.559,0.805,0.503,1.036,0.712,0.327,0.581,0.552,��,4.6,��
2022/12/07,16:50,0.558,0.804,0.503,1.034,0.709,0.328,0.581,0.550,��,4.0,��
2022/12/07,17:00,0.559,0.805,0.505,1.034,0.709,0.326,0.582,0.550,��,4.2,��
2022/12/07,17:10,0.560,0.804,0.505,1.035,0.710,0.327,0.583,0.552,��,3.6,��
2022/12/07,17:20,0.560,0.805,0.504,1.033,0.709,0.327,0.582,0.550,���k��,4.4,��
2022/12/07,17:30,0.558,0.803,0.503,1.033,0.709,0.325,0.581,0.551,��,4.1,��
2022/12/07,17:40,0.560,0.805,0.504,1.034,0.710,0.327,0.582,0.551,�쐼,3.4,��
2022/12/07,17:50,0.560,0.805,0.504,1.035,0.710,0.325,0.583,0.552,��,4.2,��
2022/12/07,18:00,0.558,0.806,0.503,1.032,0.711,0.327,0.581,0.551,��,5.5,��
2022/12/07,18:10,0.560,0.805,0.503,1.033,0.709,0.325,0.581,0.550,��,6.2,��
2022/12/07,18:20,0.560,0.806,0.503,1.033,0.711,0.326,0.580,0.553,���쐼,5.5,��
2022/12/07,18:30,0.559,0.804,0.503,1.034,0.709,0.325,0.580,0.550,��,5.8,��
2022/12/07,18:40,0.559,0.804,0.504,1.033,0.711,0.326,0.581,0.551,��,5.6,��
2022/12/07,18:50,0.558,0.803,0.503,1.034,0.711,0.327,0.582,0.552,��,5.2,��
2022/12/07,19:00,0.560,0.803,0.504,1.033,0.711,0.326,0.583,0.551,��,5.9,��
2022/12/07,19:10,0.558,0.805,0.502,1.035,0.711,0.326,0.581,0.550,��,6.1,��
2022/12/07,19:20,0.559,0.804,0.503,1.036,0.709,0.327,0.583,0.552,��,6.7,��
2022/12/07,19:30,0.558,0.805,0.502,1.034,0.711,0.327,0.581,0.550,��,6.7,��
2022/12/07,19:40,0.559,0.804,0.504,1.035,0.711,0.325,0.580,0.551,��,6.8,��
2022/12/07,19:50,0.558,0.805,0.502,1.035,0.710,0.327,0.581,0.552,��,8.5,��
2022/12/07,20:00,0.560,0.803,0.504,1.035,0.710,0.326,0.583,0.552,��,7.6,��
2022/12/07,20:10,0.562,0.804,0.503,1.033,0.710,0.326,0.580,0.551,��,7.0,��
2022/12/07,20:20,0.561,0.804,0.503,1.034,0.710,0.325,0.582,0.553,��,7.4,��
2022/12/07,20:30,0.558,0.805,0.503,1.035,0.710,0.326,0.583,0.553,��,7.1,��
2022/12/07,20:40,0.558,0.804,0.503,1.034,0.709,0.327,0.582,0.552,��,6.0,��
2022/12/07,20:50,0.558,0.806,0.503,1.034,0.711,0.327,0.581,0.551,��,5.0,��
2022/12/07,21:00,0.558,0.806,0.502,1.035,0.710,0.327,0.581,0.553,��,5.8,��
2022/12/07,21:10,0.560,0.805,0.503,1.034,0.711,0.326,0.582,0.552,���쐼,5.9,��
2022/12/07,21:20,0.560,0.804,0.504,1.035,0.709,0.327,0.581,0.551,��,6.0,��
2022/12/07,21:30,0.558,0.805,0.504,1.035,0.709,0.327,0.583,0.553,��,6.0,��
2022/12/07,21:40,0.559,0.804,0.503,1.033,0.710,0.326,0.582,0.551,��,4.5,��
2022/12/07,21:50,0.558,0.805,0.505,1.033,0.711,0.325,0.580,0.551,���k��,5.6,��
2022/12/07,22:00,0.556,0.805,0.503,1.035,0.710,0.326,0.580,0.552,��,4.0,��
2022/12/07,22:10,0.558,0.806,0.503,1.035,0.710,0.327,0.583,0.552,��,2.8,��
2022/12/07,22:20,0.558,0.804,0.504,1.034,0.711,0.326,0.582,0.552,���k��,3.3,��
2022/12/07,22:30,0.559,0.803,0.502,1.033,0.710,0.327,0.582,0.553,���k��,4.1,��
2022/12/07,22:40,0.559,0.803,0.504,1.034,0.711,0.326,0.583,0.552,���k��,5.2,��
2022/12/07,22:50,0.559,0.803,0.503,1.034,0.709,0.325,0.582,0.552,���k��,6.5,��
2022/12/07,23:00,0.559,0.803,0.502,1.034,0.710,0.327,0.581,0.552,���k��,6.9,��
2022/12/07,23:10,0.559,0.805,0.503,1.034,0.713,0.326,0.581,0.551,���k��,6.8,��
2022/12/07,23:20,0.558,0.804,0.502,1.032,0.710,0.326,0.583,0.552,���k��,6.4,��
2022/12/07,23:30,0.559,0.806,0.503,1.035,0.711,0.327,0.581,0.553,���k��,7.6,��
2022/12/07,23:40,0.561,0.804,0.504,1.034,0.709,0.326,0.581,0.551,��,7.3,��
2022/12/07,23:50,0.559,0.805,0.503,1.036,0.710,0.326,0.583,0.552,��,7.1,��
